Total_Precipitation_Accumulation
0.39 0.31 0.47 0.48 0.45 0.55 0.79 0.75 0.65 0.30 0.15 0.10 0.09 0.13 0.12 0.10 0.08 0.07 0.06 0.05 0.05 0.04 0.04 0.04 0.03 0.03 0.02 0.02 0.02 0.03 0.04 0.05 0.06 0.07 0.06 0.07 0.06 0.06 0.06 0.06 0.06 0.07 0.08 0.09
0.45 0.27 0.38 0.44 0.40 0.42 0.46 0.48 0.45 0.32 0.24 0.13 0.12 0.14 0.13 0.10 0.09 0.08 0.06 0.06 0.05 0.04 0.04 0.04 0.04 0.05 0.05 0.04 0.04 0.04 0.06 0.07 0.07 0.07 0.07 0.07 0.07 0.08 0.09 0.10 0.10 0.12 0.15 0.19
0.51 0.31 0.40 0.44 0.38 0.39 0.38 0.33 0.35 0.36 0.27 0.17 0.17 0.17 0.15 0.11 0.09 0.08 0.05 0.04 0.03 0.03 0.04 0.03 0.03 0.03 0.03 0.04 0.05 0.05 0.06 0.08 0.08 0.08 0.08 0.08 0.10 0.15 0.18 0.20 0.22 0.26 0.30 0.35
0.49 0.36 0.48 0.35 0.27 0.28 0.30 0.27 0.30 0.27 0.20 0.15 0.15 0.17 0.16 0.12 0.08 0.06 0.04 0.03 0.02 0.02 0.02 0.02 0.02 0.02 0.02 0.03 0.04 0.05 0.07 0.10 0.12 0.13 0.17 0.20 0.20 0.25 0.31 0.35 0.37 0.40 0.41 0.43
0.47 0.36 0.25 0.18 0.18 0.21 0.27 0.27 0.24 0.18 0.12 0.11 0.11 0.16 0.16 0.13 0.09 0.06 0.04 0.04 0.04 0.03 0.03 0.02 0.03 0.03 0.04 0.05 0.06 0.06 0.08 0.11 0.14 0.17 0.24 0.30 0.31 0.34 0.38 0.43 0.46 0.45 0.42 0.38
0.42 0.35 0.18 0.10 0.06 0.08 0.17 0.26 0.16 0.14 0.13 0.13 0.14 0.17 0.15 0.12 0.11 0.10 0.08 0.06 0.06 0.07 0.08 0.09 0.09 0.10 0.11 0.11 0.15 0.18 0.19 0.22 0.26 0.31 0.37 0.40 0.40 0.39 0.38 0.36 0.35 0.31 0.26 0.22
0.33 0.29 0.07 0.03 0.03 0.05 0.16 0.20 0.07 0.07 0.09 0.12 0.11 0.10 0.11 0.09 0.08 0.10 0.11 0.11 0.11 0.11 0.13 0.15 0.15 0.16 0.17 0.18 0.25 0.30 0.33 0.35 0.35 0.37 0.38 0.38 0.35 0.32 0.29 0.23 0.19 0.15 0.11 0.09
0.15 0.20 0.09 0.04 0.04 0.07 0.09 0.06 0.06 0.07 0.08 0.09 0.10 0.08 0.08 0.10 0.09 0.08 0.08 0.09 0.11 0.13 0.15 0.17 0.20 0.24 0.25 0.28 0.31 0.32 0.32 0.32 0.32 0.30 0.27 0.26 0.24 0.20 0.16 0.12 0.08 0.06 0.04 0.02
0.08 0.09 0.07 0.05 0.05 0.04 0.03 0.04 0.05 0.07 0.08 0.08 0.08 0.10 0.08 0.06 0.06 0.06 0.06 0.08 0.11 0.14 0.17 0.19 0.21 0.24 0.26 0.26 0.26 0.25 0.25 0.23 0.20 0.17 0.14 0.13 0.10 0.08 0.07 0.05 0.03 0.02 0.01 0.01
0.06 0.04 0.04 0.04 0.03 0.03 0.02 0.02 0.02 0.03 0.05 0.08 0.09 0.10 0.09 0.05 0.04 0.04 0.04 0.05 0.06 0.08 0.10 0.11 0.12 0.15 0.16 0.15 0.13 0.13 0.12 0.12 0.09 0.06 0.05 0.04 0.03 0.02 0.01 0.01 0.01 0.01 0.00 0.01
0.07 0.04 0.04 0.04 0.03 0.03 0.02 0.02 0.01 0.01 0.02 0.03 0.05 0.05 0.06 0.06 0.05 0.05 0.04 0.04 0.04 0.04 0.04 0.05 0.06 0.06 0.06 0.06 0.05 0.05 0.04 0.03 0.03 0.02 0.01 0.01 0.01 0.01 0.01 0.01 0.01 0.01 0.01 0.01
0.08 0.05 0.05 0.04 0.03 0.03 0.03 0.02 0.02 0.02 0.02 0.02 0.02 0.03 0.03 0.03 0.02 0.03 0.03 0.03 0.03 0.03 0.02 0.02 0.02 0.02 0.02 0.02 0.02 0.02 0.01 0.01 0.01 0.01 0.01 0.01 0.01 0.01 0.01 0.01 0.01 0.01 0.01 0.02
0.05 0.04 0.03 0.03 0.02 0.02 0.02 0.02 0.02 0.02 0.02 0.02 0.03 0.03 0.03 0.02 0.03 0.02 0.02 0.02 0.02 0.02 0.02 0.02 0.02 0.02 0.02 0.01 0.01 0.01 0.01 0.01 0.01 0.01 0.01 0.01 0.01 0.01 0.01 0.01 0.01 0.01 0.01 0.01
0.03 0.03 0.03 0.02 0.01 0.01 0.02 0.02 0.02 0.02 0.02 0.02 0.03 0.03 0.02 0.02 0.03 0.02 0.02 0.02 0.02 0.02 0.02 0.02 0.03 0.03 0.03 0.03 0.03 0.03 0.03 0.03 0.02 0.02 0.02 0.02 0.02 0.02 0.02 0.02 0.01 0.01 0.01 0.01
0.02 0.03 0.04 0.03 0.03 0.03 0.03 0.02 0.02 0.03 0.02 0.02 0.02 0.02 0.02 0.03 0.03 0.03 0.03 0.03 0.03 0.02 0.02 0.02 0.02 0.03 0.03 0.03 0.03 0.03 0.03 0.03 0.03 0.03 0.03 0.02 0.02 0.02 0.02 0.02 0.02 0.01 0.01 0.01
0.03 0.03 0.03 0.02 0.02 0.02 0.03 0.03 0.03 0.04 0.03 0.03 0.04 0.04 0.04 0.04 0.04 0.04 0.04 0.04 0.04 0.04 0.04 0.03 0.03 0.03 0.03 0.03 0.03 0.03 0.03 0.04 0.04 0.03 0.03 0.03 0.03 0.03 0.03 0.03 0.03 0.03 0.02 0.02
0.04 0.04 0.04 0.05 0.04 0.04 0.03 0.03 0.03 0.03 0.03 0.03 0.04 0.04 0.04 0.03 0.03 0.04 0.04 0.04 0.03 0.04 0.05 0.05 0.05 0.05 0.04 0.04 0.04 0.04 0.04 0.04 0.06 0.04 0.03 0.03 0.04 0.04 0.04 0.05 0.04 0.03 0.02 0.02
0.04 0.04 0.05 0.05 0.05 0.05 0.05 0.04 0.04 0.04 0.03 0.02 0.02 0.03 0.03 0.03 0.03 0.04 0.04 0.04 0.04 0.04 0.03 0.03 0.04 0.05 0.05 0.05 0.05 0.05 0.05 0.05 0.05 0.05 0.04 0.05 0.06 0.05 0.05 0.05 0.04 0.04 0.03 0.04
0.04 0.04 0.04 0.04 0.05 0.05 0.05 0.05 0.04 0.04 0.03 0.03 0.03 0.03 0.04 0.03 0.03 0.03 0.04 0.04 0.04 0.04 0.05 0.05 0.06 0.05 0.04 0.05 0.07 0.06 0.06 0.07 0.07 0.07 0.08 0.09 0.09 0.07 0.06 0.06 0.05 0.05 0.05 0.05
0.04 0.05 0.06 0.08 0.08 0.09 0.08 0.07 0.06 0.06 0.05 0.04 0.03 0.03 0.03 0.03 0.03 0.03 0.03 0.03 0.03 0.04 0.05 0.06 0.07 0.05 0.05 0.05 0.08 0.07 0.06 0.07 0.09 0.10 0.11 0.11 0.10 0.08 0.07 0.07 0.07 0.06 0.06 0.05
0.07 0.07 0.08 0.10 0.10 0.10 0.10 0.09 0.07 0.06 0.06 0.05 0.04 0.05 0.05 0.05 0.04 0.04 0.04 0.04 0.04 0.04 0.04 0.06 0.06 0.05 0.06 0.07 0.10 0.08 0.08 0.09 0.10 0.10 0.11 0.11 0.11 0.10 0.09 0.08 0.08 0.08 0.07 0.07
0.10 0.10 0.11 0.12 0.13 0.13 0.12 0.09 0.07 0.06 0.06 0.05 0.05 0.05 0.05 0.05 0.06 0.05 0.05 0.05 0.06 0.06 0.05 0.04 0.05 0.06 0.08 0.10 0.09 0.08 0.09 0.10 0.10 0.10 0.11 0.11 0.11 0.11 0.10 0.10 0.11 0.10 0.09 0.09
0.11 0.11 0.11 0.11 0.12 0.13 0.12 0.11 0.09 0.08 0.07 0.07 0.07 0.07 0.06 0.06 0.06 0.06 0.06 0.06 0.05 0.06 0.05 0.04 0.06 0.08 0.09 0.08 0.07 0.07 0.08 0.09 0.09 0.10 0.10 0.10 0.10 0.11 0.12 0.11 0.11 0.10 0.09 0.09
0.12 0.11 0.11 0.10 0.10 0.09 0.09 0.09 0.09 0.09 0.08 0.07 0.07 0.07 0.07 0.07 0.07 0.06 0.05 0.07 0.07 0.08 0.06 0.06 0.08 0.09 0.09 0.07 0.07 0.08 0.09 0.09 0.10 0.10 0.10 0.10 0.11 0.11 0.12 0.11 0.11 0.09 0.09 0.09
0.12 0.11 0.10 0.09 0.09 0.09 0.09 0.08 0.07 0.06 0.06 0.06 0.05 0.05 0.05 0.06 0.06 0.06 0.06 0.06 0.07 0.08 0.07 0.08 0.09 0.09 0.09 0.08 0.09 0.10 0.10 0.10 0.11 0.11 0.11 0.11 0.10 0.10 0.10 0.10 0.11 0.10 0.10 0.09
0.09 0.08 0.08 0.07 0.06 0.06 0.07 0.06 0.06 0.06 0.05 0.05 0.05 0.04 0.04 0.04 0.04 0.04 0.04 0.04 0.05 0.07 0.07 0.07 0.09 0.10 0.10 0.10 0.10 0.11 0.11 0.11 0.12 0.11 0.09 0.09 0.10 0.11 0.10 0.10 0.10 0.10 0.09 0.08
0.07 0.06 0.06 0.05 0.05 0.04 0.05 0.04 0.04 0.05 0.05 0.05 0.06 0.05 0.05 0.05 0.04 0.04 0.04 0.03 0.03 0.04 0.05 0.05 0.06 0.07 0.08 0.09 0.10 0.10 0.10 0.10 0.10 0.10 0.10 0.10 0.10 0.10 0.10 0.09 0.10 0.09 0.09 0.09